Location: Schommer Observatory
(40.5200°N, 74.4500°W)
Time: 08:50:29
(UTC-05:00)

Tiangong 1 - Visible Passes

Search period start: 20 November 2017 00:00
Search period end: 30 November 2017 00:00
Orbit: 285 x 309 km, 42.8° (Epoch: 20 November)

Date Brightness Start Highest point End Pass type
(mag) Time Alt. Az. Time Alt. Az. Time Alt. Az.
24 Nov 2.5 17:43:17 10° SSW 17:45:08 17° SSE 17:45:38 17° SE visible
25 Nov 1.6 17:49:09 10° SW 17:51:32 33° SSE 17:51:59 30° SE visible
26 Nov 0.6 17:55:20 10° WSW 17:57:53 64° SSE 17:58:09 58° ESE visible
27 Nov 0.5 18:01:36 10° W 18:04:10 76° NNW 18:04:10 76° NNW visible
28 Nov 1.3 18:07:52 10° W 18:10:04 48° NW 18:10:04 48° NW visible
29 Nov 2.0 18:14:03 10° WNW 18:15:50 34° NW 18:15:50 34° NW visible
